N254SB ENVA-ENBO

Flight info

Callsign N254SB
Flight time 0h 58m
Altitude 41000
Route NIGEX DCT ODNOS
Aircraft C25C/M-SDE2E3FGHRWXY/LB1

Departure

Time 2026-04-22 15:51
Airport Trondheim Airport, Værnes (ENVA)

Arrival

Time 2026-04-22 16:49
Airport Bodø Airport (ENBO)
Time Latitude Longitude Altitude Speed Heading
2026-04-22 15:43 63.45489 10.92250 46 ft 0 kts 270°
2026-04-22 15:44 63.45489 10.92249 46 ft 0 kts 270°
2026-04-22 15:46 63.45489 10.92247 46 ft 1 kts 270°
2026-04-22 15:47 63.45496 10.92210 46 ft 4 kts 329°
2026-04-22 15:47 63.45533 10.92244 46 ft 6 kts 54°
2026-04-22 15:47 63.45557 10.92325 46 ft 7 kts 44°
2026-04-22 15:47 63.45591 10.92410 47 ft 8 kts 57°
2026-04-22 15:48 63.45594 10.92526 48 ft 8 kts 89°
2026-04-22 15:48 63.45594 10.92656 49 ft 9 kts 90°
2026-04-22 15:48 63.45594 10.92797 51 ft 10 kts 90°
2026-04-22 15:48 63.45594 10.93006 53 ft 16 kts 90°
2026-04-22 15:49 63.45593 10.93304 56 ft 22 kts 90°
2026-04-22 15:49 63.45594 10.93694 59 ft 28 kts 90°
2026-04-22 15:49 63.45651 10.93936 60 ft 18 kts 26°
2026-04-22 15:49 63.45709 10.94036 60 ft 10 kts 38°
2026-04-22 15:50 63.45757 10.94035 57 ft 2 kts 290°
2026-04-22 15:50 63.45757 10.94013 59 ft 0 kts 269°
2026-04-22 15:50 63.45757 10.93969 59 ft 22 kts 269°
2026-04-22 15:50 63.45769 10.92776 50 ft 117 kts 276°
2026-04-22 15:51 63.46032 10.90916 1012 ft 147 kts 285°
2026-04-22 15:51 63.46347 10.88315 1594 ft 198 kts 283°
2026-04-22 15:51 63.46574 10.85313 2854 ft 198 kts 281°
2026-04-22 15:51 63.46794 10.82359 3628 ft 202 kts 287°
2026-04-22 15:52 63.47790 10.79957 3540 ft 235 kts 333°
2026-04-22 15:52 63.49492 10.79664 3539 ft 258 kts
2026-04-22 15:52 63.51266 10.80115 3548 ft 239 kts 358°
2026-04-22 15:52 63.52775 10.80276 3537 ft 200 kts 354°
2026-04-22 15:53 63.54072 10.80151 3527 ft 174 kts 341°
2026-04-22 15:53 63.55181 10.79477 3504 ft 159 kts 335°
2026-04-22 15:53 63.56220 10.78735 3472 ft 157 kts 333°
2026-04-22 15:53 63.57274 10.77953 3721 ft 164 kts 335°
2026-04-22 15:54 63.58361 10.77169 4136 ft 164 kts 334°
2026-04-22 15:54 63.59450 10.76400 4558 ft 164 kts 335°
2026-04-22 15:54 63.60538 10.75601 4976 ft 168 kts 335°
2026-04-22 15:54 63.61665 10.74815 5958 ft 169 kts 337°
2026-04-22 15:55 63.62765 10.74027 6676 ft 165 kts 339°
2026-04-22 15:55 63.63857 10.73232 7176 ft 165 kts 339°
2026-04-22 15:55 63.64953 10.72456 7648 ft 165 kts 340°
2026-04-22 15:55 63.66034 10.71666 8145 ft 166 kts 341°
2026-04-22 15:56 63.67135 10.70882 8632 ft 166 kts 341°
2026-04-22 15:56 63.68251 10.70192 9117 ft 168 kts 353°
2026-04-22 15:56 63.69406 10.70664 9614 ft 172 kts 16°
2026-04-22 15:56 63.70477 10.71931 10079 ft 174 kts 22°
2026-04-22 15:57 63.71545 10.73222 10511 ft 175 kts 24°
2026-04-22 15:57 63.72609 10.74550 10935 ft 174 kts 23°
2026-04-22 15:57 63.73676 10.75860 11377 ft 175 kts 24°
2026-04-22 15:57 63.74730 10.77153 11782 ft 175 kts 23°
2026-04-22 15:58 63.75797 10.78479 12191 ft 175 kts 23°
2026-04-22 15:58 63.76871 10.79782 12611 ft 175 kts 24°
2026-04-22 15:58 63.77939 10.81116 13047 ft 175 kts 23°
2026-04-22 15:58 63.79014 10.82429 13465 ft 176 kts 23°
2026-04-22 15:59 63.80086 10.83758 13892 ft 176 kts 22°
2026-04-22 15:59 63.81159 10.85090 14298 ft 176 kts 23°
2026-04-22 15:59 63.82237 10.86409 14658 ft 176 kts 23°
2026-04-22 15:59 63.83311 10.87754 15023 ft 176 kts 23°
2026-04-22 16:00 63.84375 10.89062 15381 ft 177 kts 23°
2026-04-22 16:00 63.85452 10.90403 15755 ft 177 kts 22°
2026-04-22 16:00 63.86531 10.91744 16136 ft 177 kts 23°
2026-04-22 16:00 63.87612 10.93077 16502 ft 177 kts 23°
2026-04-22 16:01 63.88692 10.94433 16866 ft 177 kts 23°
2026-04-22 16:01 63.89751 10.95749 17433 ft 164 kts 24°
2026-04-22 16:01 63.90675 10.96913 18223 ft 148 kts 21°
2026-04-22 16:01 63.91747 10.98171 18339 ft 197 kts 22°
2026-04-22 16:02 63.93029 10.99687 18720 ft 225 kts 23°
2026-04-22 16:02 63.94474 11.01317 18808 ft 244 kts 22°
2026-04-22 16:02 63.96054 11.03067 18730 ft 261 kts 21°
2026-04-22 16:02 63.97605 11.04927 19364 ft 250 kts 28°
2026-04-22 16:03 63.99020 11.07209 19749 ft 249 kts 28°
2026-04-22 16:03 64.00533 11.09319 19796 ft 260 kts 24°
2026-04-22 16:03 64.02164 11.11307 19840 ft 271 kts 23°
2026-04-22 16:03 64.03858 11.13389 19881 ft 281 kts 24°
2026-04-22 16:04 64.05596 11.15583 19919 ft 290 kts 25°
2026-04-22 16:04 64.07377 11.17839 19949 ft 309 kts 24°
2026-04-22 16:04 64.09278 11.20258 20762 ft 313 kts 25°
2026-04-22 16:04 64.11191 11.22676 21665 ft 316 kts 24°
2026-04-22 16:05 64.13128 11.25136 22524 ft 320 kts 25°
2026-04-22 16:05 64.15093 11.27618 23402 ft 324 kts 24°
2026-04-22 16:05 64.17074 11.30159 24196 ft 329 kts 25°
2026-04-22 16:05 64.18897 11.33455 24935 ft 342 kts 41°
2026-04-22 16:06 64.20384 11.37796 25693 ft 349 kts 47°
2026-04-22 16:06 64.21797 11.42365 26391 ft 354 kts 49°
2026-04-22 16:06 64.23162 11.47011 27080 ft 357 kts 49°
2026-04-22 16:06 64.24587 11.51698 27747 ft 360 kts 48°
2026-04-22 16:07 64.26064 11.56506 27855 ft 378 kts 49°
2026-04-22 16:07 64.27612 11.61559 27867 ft 394 kts 49°
2026-04-22 16:07 64.29186 11.66821 28161 ft 400 kts 50°
2026-04-22 16:07 64.30770 11.72086 28721 ft 399 kts 49°
2026-04-22 16:08 64.32346 11.77327 29325 ft 397 kts 49°
2026-04-22 16:08 64.33921 11.82532 29913 ft 395 kts 49°
2026-04-22 16:08 64.35502 11.87699 30490 ft 391 kts 46°
2026-04-22 16:08 64.37260 11.92314 30990 ft 386 kts 41°
2026-04-22 16:09 64.39215 11.96501 31463 ft 381 kts 34°
2026-04-22 16:09 64.41375 11.99962 31929 ft 376 kts 27°
2026-04-22 16:09 64.43700 12.02641 32381 ft 372 kts 19°
2026-04-22 16:09 64.46148 12.04490 32816 ft 369 kts 12°
2026-04-22 16:10 64.48667 12.05480 33253 ft 367 kts
2026-04-22 16:10 64.51204 12.05578 33755 ft 363 kts 356°
2026-04-22 16:10 64.53695 12.04809 34182 ft 361 kts 349°
2026-04-22 16:10 64.56108 12.03179 34501 ft 362 kts 341°
2026-04-22 16:11 64.58529 12.01605 34796 ft 361 kts 351°
2026-04-22 16:11 64.61031 12.01299 35083 ft 361 kts
2026-04-22 16:11 64.63485 12.02200 35353 ft 364 kts 12°
2026-04-22 16:11 64.65861 12.04269 35624 ft 367 kts 21°
2026-04-22 16:12 64.68142 12.06992 35890 ft 369 kts 25°
2026-04-22 16:12 64.70365 12.10001 36150 ft 371 kts 28°
2026-04-22 16:12 64.72507 12.13376 36426 ft 372 kts 31°
2026-04-22 16:12 64.74578 12.17021 36694 ft 373 kts 33°
2026-04-22 16:13 64.76611 12.20822 36964 ft 374 kts 34°
2026-04-22 16:13 64.78598 12.24634 37233 ft 374 kts 34°
2026-04-22 16:13 64.80604 12.28525 37619 ft 374 kts 34°
2026-04-22 16:13 64.82574 12.32462 38026 ft 371 kts 34°
2026-04-22 16:14 64.84521 12.36419 38316 ft 370 kts 35°
2026-04-22 16:14 64.86481 12.40344 38571 ft 368 kts 32°
2026-04-22 16:14 64.88592 12.43669 38830 ft 363 kts 24°
2026-04-22 16:14 64.90879 12.46080 39045 ft 359 kts 15°
2026-04-22 16:15 64.93249 12.47892 39244 ft 358 kts 13°
2026-04-22 16:15 64.95636 12.49648 39446 ft 360 kts 15°
2026-04-22 16:15 64.97957 12.51737 39662 ft 363 kts 18°
2026-04-22 16:15 65.00294 12.54012 39890 ft 364 kts 18°
2026-04-22 16:16 65.02656 12.56179 40128 ft 365 kts 17°
2026-04-22 16:16 65.05040 12.58285 40352 ft 366 kts 17°
2026-04-22 16:16 65.07424 12.60434 40576 ft 368 kts 17°
2026-04-22 16:16 65.09811 12.62626 40875 ft 368 kts 17°
2026-04-22 16:17 65.12208 12.64823 41010 ft 371 kts 17°
2026-04-22 16:17 65.14636 12.67042 41096 ft 376 kts 17°
2026-04-22 16:17 65.19537 12.71534 41200 ft 385 kts 17°
2026-04-22 16:18 65.24582 12.76187 41201 ft 387 kts 18°
2026-04-22 16:18 65.29575 12.80802 41203 ft 384 kts 17°
2026-04-22 16:19 65.34563 12.85433 41197 ft 384 kts 17°
2026-04-22 16:19 65.39510 12.90036 41209 ft 384 kts 17°
2026-04-22 16:20 65.44500 12.94719 41207 ft 388 kts 17°
2026-04-22 16:20 65.49556 12.99468 41204 ft 392 kts 17°
2026-04-22 16:21 65.54665 13.04294 41199 ft 396 kts 17°
2026-04-22 16:21 65.59780 13.09141 41199 ft 394 kts 17°
2026-04-22 16:22 65.67379 13.16390 41193 ft 392 kts 17°
2026-04-22 16:23 65.74985 13.23677 41189 ft 391 kts 17°
2026-04-22 16:23 65.80032 13.28546 41189 ft 390 kts 17°
2026-04-22 16:24 65.87550 13.35838 41184 ft 389 kts 17°
2026-04-22 16:25 65.92571 13.40730 41185 ft 388 kts 17°
2026-04-22 16:25 66.00090 13.48090 40894 ft 388 kts 17°
2026-04-22 16:26 66.02568 13.50535 40191 ft 380 kts 17°
2026-04-22 16:26 66.04965 13.52905 39497 ft 373 kts 16°
2026-04-22 16:26 66.07347 13.55254 38803 ft 366 kts 15°
2026-04-22 16:26 66.09681 13.57568 38079 ft 357 kts 15°
2026-04-22 16:27 66.11952 13.59817 37426 ft 348 kts 15°
2026-04-22 16:27 66.14171 13.62027 36786 ft 340 kts 15°
2026-04-22 16:27 66.16340 13.64181 36162 ft 333 kts 15°
2026-04-22 16:27 66.18468 13.66300 35538 ft 327 kts 14°
2026-04-22 16:28 66.20575 13.68406 34937 ft 327 kts 14°
2026-04-22 16:28 66.22684 13.70505 34331 ft 326 kts 14°
2026-04-22 16:28 66.24757 13.72592 33698 ft 326 kts 14°
2026-04-22 16:28 66.26847 13.74691 33095 ft 323 kts 14°
2026-04-22 16:29 66.28909 13.76909 32507 ft 324 kts 17°
2026-04-22 16:29 66.30899 13.79542 31892 ft 325 kts 20°
2026-04-22 16:29 66.32851 13.82370 31284 ft 323 kts 20°
2026-04-22 16:29 66.34799 13.85144 30689 ft 322 kts 20°
2026-04-22 16:30 66.36082 13.86971 30296 ft 320 kts 20°
2026-04-22 16:30 66.38655 13.90674 29465 ft 317 kts 20°
2026-04-22 16:30 66.40535 13.93373 28882 ft 315 kts 20°
2026-04-22 16:30 66.42425 13.96104 28298 ft 313 kts 20°
2026-04-22 16:31 66.44303 13.98811 27675 ft 312 kts 20°
2026-04-22 16:31 66.46173 14.01515 27076 ft 310 kts 20°
2026-04-22 16:31 66.48039 14.04220 26505 ft 313 kts 20°
2026-04-22 16:31 66.49967 14.06988 25913 ft 326 kts 21°
2026-04-22 16:32 66.51964 14.09903 25299 ft 338 kts 21°
2026-04-22 16:32 66.54022 14.12893 24667 ft 347 kts 21°
2026-04-22 16:32 66.56126 14.15994 24016 ft 354 kts 22°
2026-04-22 16:32 66.58244 14.19080 23351 ft 359 kts 21°
2026-04-22 16:33 66.60407 14.22268 22652 ft 359 kts 21°
2026-04-22 16:33 66.62540 14.25405 21991 ft 352 kts 21°
2026-04-22 16:33 66.64643 14.28510 21348 ft 349 kts 21°
2026-04-22 16:33 66.66737 14.31573 20694 ft 347 kts 22°
2026-04-22 16:34 66.68820 14.34664 20050 ft 347 kts 22°
2026-04-22 16:34 66.70906 14.37691 19405 ft 343 kts 20°
2026-04-22 16:34 66.73065 14.40128 18769 ft 339 kts 17°
2026-04-22 16:34 66.75204 14.42668 18114 ft 340 kts 19°
2026-04-22 16:35 66.77308 14.45181 17495 ft 337 kts 18°
2026-04-22 16:35 66.79402 14.47668 16876 ft 323 kts 18°
2026-04-22 16:35 66.81368 14.49994 16298 ft 302 kts 18°
2026-04-22 16:35 66.83226 14.52170 15760 ft 288 kts 18°
2026-04-22 16:36 66.85024 14.54291 15230 ft 281 kts 18°
2026-04-22 16:36 66.86783 14.56380 14710 ft 278 kts 19°
2026-04-22 16:36 66.88514 14.58501 14199 ft 274 kts 19°
2026-04-22 16:36 66.90227 14.60577 13664 ft 271 kts 19°
2026-04-22 16:37 66.91915 14.62631 13151 ft 267 kts 19°
2026-04-22 16:37 66.93558 14.64602 12678 ft 263 kts 19°
2026-04-22 16:37 66.95197 14.66627 12195 ft 260 kts 20°
2026-04-22 16:37 66.96804 14.68568 11717 ft 251 kts 20°
2026-04-22 16:38 66.98345 14.70461 11272 ft 242 kts 20°
2026-04-22 16:38 66.99856 14.72301 10708 ft 241 kts 20°
2026-04-22 16:38 67.01356 14.74139 10238 ft 237 kts 20°
2026-04-22 16:38 67.02827 14.75935 9769 ft 232 kts 21°
2026-04-22 16:39 67.04264 14.77708 9330 ft 227 kts 20°
2026-04-22 16:39 67.05654 14.79411 8912 ft 222 kts 21°
2026-04-22 16:39 67.07029 14.81107 8519 ft 218 kts 20°
2026-04-22 16:39 67.08393 14.82788 8110 ft 217 kts 21°
2026-04-22 16:40 67.09744 14.84447 7719 ft 215 kts 20°
2026-04-22 16:40 67.11100 14.86116 7316 ft 216 kts 21°
2026-04-22 16:40 67.13847 14.89520 6510 ft 222 kts 21°
2026-04-22 16:41 67.15244 14.91261 6082 ft 224 kts 22°
2026-04-22 16:41 67.16652 14.92993 5660 ft 225 kts 21°
2026-04-22 16:41 67.18066 14.94544 5260 ft 222 kts 10°
2026-04-22 16:41 67.19578 14.94575 4844 ft 214 kts 355°
2026-04-22 16:42 67.21036 14.94526 4451 ft 206 kts 357°
2026-04-22 16:42 67.22414 14.94356 4115 ft 185 kts 354°
2026-04-22 16:42 67.23644 14.94233 4033 ft 172 kts 355°
2026-04-22 16:42 67.24821 14.94092 4014 ft 168 kts 354°
2026-04-22 16:43 67.25973 14.93869 4012 ft 164 kts 345°
2026-04-22 16:43 67.26963 14.92489 3939 ft 164 kts 322°
2026-04-22 16:43 67.27601 14.90081 3798 ft 171 kts 287°
2026-04-22 16:43 67.27756 14.87054 3656 ft 174 kts 277°
2026-04-22 16:44 67.27753 14.83910 3503 ft 175 kts 274°
2026-04-22 16:44 67.27723 14.80772 3348 ft 174 kts 272°
2026-04-22 16:44 67.27690 14.77670 3195 ft 172 kts 273°
2026-04-22 16:44 67.27656 14.74571 3039 ft 173 kts 271°
2026-04-22 16:45 67.27634 14.71517 3011 ft 165 kts 270°
2026-04-22 16:45 67.27585 14.68830 3009 ft 132 kts 271°
2026-04-22 16:45 67.27584 14.66483 2521 ft 139 kts 275°
2026-04-22 16:45 67.27575 14.64159 2475 ft 122 kts 263°
2026-04-22 16:46 67.27269 14.62021 2063 ft 135 kts 259°
2026-04-22 16:46 67.27335 14.59683 1647 ft 122 kts 285°
2026-04-22 16:46 67.27508 14.57684 1504 ft 107 kts 287°
2026-04-22 16:46 67.27667 14.55815 1333 ft 104 kts 285°
2026-04-22 16:47 67.27807 14.53979 1220 ft 105 kts 281°
2026-04-22 16:47 67.27894 14.52084 1066 ft 109 kts 277°
2026-04-22 16:47 67.27931 14.50140 869 ft 105 kts 272°
2026-04-22 16:47 67.27858 14.48330 729 ft 99 kts 265°
2026-04-22 16:48 67.27750 14.46587 571 ft 100 kts 262°
2026-04-22 16:48 67.27611 14.44835 424 ft 101 kts 262°
2026-04-22 16:48 67.27460 14.43078 285 ft 99 kts 261°
2026-04-22 16:48 67.27314 14.41343 167 ft 98 kts 261°
2026-04-22 16:49 67.27175 14.39628 68 ft 95 kts 262°
2026-04-22 16:49 67.27069 14.38098 47 ft 74 kts 255°
2026-04-22 16:49 67.26976 14.36999 37 ft 55 kts 255°
2026-04-22 16:49 67.26910 14.36355 32 ft 16 kts 259°
2026-04-22 16:50 67.26976 14.36187 33 ft 14 kts 358°
2026-04-22 16:50 67.27035 14.36265 36 ft 11 kts 93°
2026-04-22 16:50 67.27061 14.36434 38 ft 9 kts 27°
2026-04-22 16:50 67.27116 14.36415 39 ft 8 kts 348°
2026-04-22 16:51 67.27169 14.36388 41 ft 8 kts 347°
2026-04-22 16:51 67.27209 14.36368 40 ft 2 kts
2026-04-22 16:51 67.27215 14.36372 40 ft 3 kts 23°
2026-04-22 16:51 67.27230 14.36398 41 ft 3 kts 31°
2026-04-22 16:52 67.27251 14.36430 40 ft 1 kts 32°